TimePST,TemperatureF,Dew PointF,Humidity,Sea Level PressureIn,VisibilityMPH,Wind Direction,Wind SpeedMPH,Gust SpeedMPH,PrecipitationIn,Events,Conditions,WindDirDegrees,DateUTC
12:15 AM,48.2,48.2,100,30.14,10.0,South,3.5,-,N/A,Rain,Light Rain,170,2012-11-04 07:15:00
12:35 AM,48.2,48.2,100,30.16,10.0,South,3.5,-,N/A,,Light Drizzle,180,2012-11-04 07:35:00
12:55 AM,48.2,48.2,100,30.16,10.0,SSW,3.5,-,N/A,Rain,Light Rain,200,2012-11-04 07:55:00
1:15 AM,48.2,48.2,100,30.16,10.0,Calm,Calm,-,N/A,Rain,Rain,0,2012-11-04 08:15:00
1:35 AM,48.2,48.2,100,30.17,10.0,SW,3.5,-,N/A,,Light Drizzle,230,2012-11-04 08:35:00
1:55 AM,50.0,50.0,100,30.17,10.0,SW,4.6,-,N/A,,Drizzle,230,2012-11-04 08:55:00
1:15 AM,50.0,50.0,100,30.18,10.0,SW,4.6,-,N/A,,Drizzle,220,2012-11-04 09:15:00
1:35 AM,50.0,50.0,100,30.18,10.0,SW,4.6,-,N/A,,Light Drizzle,220,2012-11-04 09:35:00
1:55 AM,50.0,50.0,100,30.19,10.0,WSW,3.5,-,N/A,,Light Drizzle,240,2012-11-04 09:55:00
2:15 AM,50.0,50.0,100,30.20,10.0,SW,4.6,-,N/A,,Overcast,220,2012-11-04 10:15:00
2:35 AM,50.0,50.0,100,30.20,10.0,SW,3.5,-,N/A,,Light Drizzle,230,2012-11-04 10:35:00
2:55 AM,50.0,50.0,100,30.21,10.0,SW,4.6,-,N/A,,Light Drizzle,230,2012-11-04 10:55:00
3:15 AM,50.0,50.0,100,30.20,10.0,SW,3.5,-,N/A,,Overcast,220,2012-11-04 11:15:00
3:35 AM,48.2,48.2,100,30.21,10.0,Calm,Calm,-,N/A,,Overcast,0,2012-11-04 11:35:00
3:55 AM,48.2,48.2,100,30.21,10.0,SW,3.5,-,N/A,,Overcast,220,2012-11-04 11:55:00
4:15 AM,48.2,48.2,100,30.21,10.0,SSW,3.5,-,N/A,,Overcast,210,2012-11-04 12:15:00
4:35 AM,48.2,48.2,100,30.22,10.0,SSW,4.6,-,N/A,,Overcast,210,2012-11-04 12:35:00
4:55 AM,50.0,50.0,100,30.23,10.0,SSW,4.6,-,N/A,,Overcast,200,2012-11-04 12:55:00
5:15 AM,48.2,48.2,100,30.22,10.0,South,4.6,-,N/A,,Overcast,190,2012-11-04 13:15:00
5:35 AM,50.0,50.0,100,30.23,10.0,South,5.8,-,N/A,,Overcast,190,2012-11-04 13:35:00
5:55 AM,48.2,48.2,100,30.23,10.0,SW,5.8,-,N/A,,Overcast,220,2012-11-04 13:55:00
6:15 AM,48.2,48.2,100,30.24,10.0,South,5.8,-,N/A,,Overcast,170,2012-11-04 14:15:00
6:35 AM,48.2,48.2,100,30.25,10.0,SSE,6.9,-,N/A,,Overcast,160,2012-11-04 14:35:00
6:55 AM,48.2,48.2,100,30.27,10.0,South,3.5,-,N/A,,Overcast,180,2012-11-04 14:55:00
7:15 AM,48.2,48.2,100,30.28,10.0,Calm,Calm,-,N/A,,Overcast,0,2012-11-04 15:15:00
7:35 AM,50.0,50.0,100,30.29,10.0,Calm,Calm,-,N/A,,Overcast,0,2012-11-04 15:35:00
7:55 AM,50.0,50.0,100,30.29,10.0,Calm,Calm,-,N/A,,Overcast,0,2012-11-04 15:55:00
8:15 AM,50.0,50.0,100,30.29,10.0,SW,3.5,-,N/A,,Overcast,220,2012-11-04 16:15:00
8:35 AM,50.0,50.0,100,30.29,10.0,WSW,4.6,-,N/A,,Overcast,240,2012-11-04 16:35:00
8:55 AM,50.0,50.0,100,30.29,10.0,Calm,Calm,-,N/A,,Overcast,0,2012-11-04 16:55:00
9:15 AM,51.8,51.8,100,30.30,10.0,WSW,3.5,-,N/A,,Overcast,240,2012-11-04 17:15:00
9:35 AM,51.8,51.8,100,30.30,10.0,SSW,3.5,-,N/A,,Overcast,200,2012-11-04 17:35:00
9:55 AM,51.8,51.8,100,30.31,10.0,SSW,3.5,-,N/A,,Overcast,200,2012-11-04 17:55:00
10:15 AM,51.8,51.8,100,30.31,10.0,SW,4.6,-,N/A,,Overcast,230,2012-11-04 18:15:00
10:35 AM,53.6,51.8,94,30.32,10.0,SSW,3.5,-,N/A,,Overcast,200,2012-11-04 18:35:00
10:55 AM,53.6,50.0,88,30.32,10.0,SW,3.5,-,N/A,,Overcast,230,2012-11-04 18:55:00
11:15 AM,53.6,50.0,88,30.32,10.0,SW,4.6,-,N/A,,Overcast,220,2012-11-04 19:15:00
11:35 AM,53.6,50.0,88,30.31,10.0,SSW,3.5,-,N/A,,Overcast,210,2012-11-04 19:35:00
11:55 AM,53.6,50.0,88,30.30,10.0,SW,4.6,-,N/A,,Overcast,220,2012-11-04 19:55:00
12:15 PM,53.6,50.0,88,30.30,10.0,SW,4.6,-,N/A,,Overcast,230,2012-11-04 20:15:00
12:35 PM,53.6,50.0,88,30.31,10.0,West,4.6,-,N/A,,Overcast,260,2012-11-04 20:35:00
12:55 PM,53.6,50.0,88,30.30,10.0,SW,3.5,-,N/A,,Overcast,230,2012-11-04 20:55:00
1:15 PM,53.6,50.0,88,30.31,10.0,SW,3.5,-,N/A,,Overcast,230,2012-11-04 21:15:00
1:35 PM,53.6,50.0,88,30.30,10.0,SSW,3.5,-,N/A,,Overcast,200,2012-11-04 21:35:00
1:55 PM,53.6,50.0,88,30.31,10.0,Calm,Calm,-,N/A,,Overcast,0,2012-11-04 21:55:00
2:15 PM,53.6,50.0,88,30.31,10.0,Calm,Calm,-,N/A,,Overcast,0,2012-11-04 22:15:00
2:35 PM,53.6,50.0,88,30.32,10.0,Calm,Calm,-,N/A,,Overcast,0,2012-11-04 22:35:00
2:55 PM,53.6,50.0,88,30.32,10.0,Calm,Calm,-,N/A,,Overcast,0,2012-11-04 22:55:00
3:15 PM,51.8,50.0,94,30.32,10.0,Calm,Calm,-,N/A,,Overcast,0,2012-11-04 23:15:00
3:35 PM,51.8,50.0,94,30.31,10.0,SE,3.5,-,N/A,,Overcast,140,2012-11-04 23:35:00
3:55 PM,51.8,50.0,94,30.31,10.0,Calm,Calm,-,N/A,,Overcast,0,2012-11-04 23:55:00
4:15 PM,51.8,51.8,100,30.31,10.0,Calm,Calm,-,N/A,,Overcast,0,2012-11-05 00:15:00
4:35 PM,51.8,51.8,100,30.31,10.0,Calm,Calm,-,N/A,,Overcast,0,2012-11-05 00:35:00
4:55 PM,51.8,51.8,100,30.30,10.0,Calm,Calm,-,N/A,,Overcast,0,2012-11-05 00:55:00
5:15 PM,51.8,51.8,100,30.30,10.0,Calm,Calm,-,N/A,,Overcast,0,2012-11-05 01:15:00
5:35 PM,51.8,51.8,100,30.30,7.0,Calm,Calm,-,N/A,,Overcast,0,2012-11-05 01:35:00
5:55 PM,50.0,50.0,100,30.30,5.0,Calm,Calm,-,N/A,,Overcast,0,2012-11-05 01:55:00
6:15 PM,50.0,50.0,100,30.30,5.0,Calm,Calm,-,N/A,,Overcast,0,2012-11-05 02:15:00
6:35 PM,50.0,50.0,100,30.30,5.0,Calm,Calm,-,N/A,,Overcast,0,2012-11-05 02:35:00
6:55 PM,50.0,50.0,100,30.31,4.0,Calm,Calm,-,N/A,,Overcast,0,2012-11-05 02:55:00
7:15 PM,50.0,50.0,100,30.30,7.0,Calm,Calm,-,N/A,,Overcast,0,2012-11-05 03:15:00
7:35 PM,51.8,51.8,100,30.30,5.0,SSW,3.5,-,N/A,,Overcast,200,2012-11-05 03:35:00
7:55 PM,51.8,51.8,100,30.29,7.0,South,3.5,-,N/A,,Overcast,190,2012-11-05 03:55:00
8:15 PM,51.8,51.8,100,30.28,10.0,SSE,3.5,-,N/A,,Overcast,150,2012-11-05 04:15:00
8:35 PM,51.8,51.8,100,30.28,10.0,SE,5.8,-,N/A,,Overcast,140,2012-11-05 04:35:00
8:55 PM,51.8,51.8,100,30.28,10.0,SSE,4.6,-,N/A,,Overcast,160,2012-11-05 04:55:00
9:15 PM,51.8,51.8,100,30.28,10.0,Calm,Calm,-,N/A,,Overcast,0,2012-11-05 05:15:00
9:35 PM,51.8,51.8,100,30.27,10.0,South,5.8,-,N/A,,Overcast,170,2012-11-05 05:35:00
9:55 PM,51.8,51.8,100,30.27,10.0,Calm,Calm,-,N/A,,Overcast,0,2012-11-05 05:55:00
10:15 PM,51.8,51.8,100,30.26,10.0,South,5.8,-,N/A,,Overcast,170,2012-11-05 06:15:00
10:35 PM,51.8,51.8,100,30.25,10.0,SSW,4.6,-,N/A,,Overcast,200,2012-11-05 06:35:00
10:55 PM,51.8,51.8,100,30.24,10.0,SSW,5.8,-,N/A,,Overcast,200,2012-11-05 06:55:00